Regional Weather Roundup
Issued by NWS Raleigh/Durham, NC

Home | Current Version | Previous Version | Text Only | Print | Product List | Glossary On
Versions: 1 2 3 4 5 6 7 8 9 10 11 12 13 14 15 16 17 18 19 20 21 22 23 24 25 26 27 28 29 30 31 32 33 34 35 36 37 38 39 40 41 42 43 44 45 46 47 48 49 50
000
ASUS42 KRAH 060010
RWRRAH
NORTH CAROLINA WEATHER ROUNDUP
NATIONAL WEATHER SERVICE RALEIGH NC
800 PM EDT TUE MAY 05 2015

NOTE: "FAIR" INDICATES FEW OR NO CLOUDS BELOW 12,000 FEET WITH NO
SIGNIFICANT WEATHER AND/OR OBSTRUCTIONS TO VISIBILITY.

NCZ001-053-055-056-065-067-060100-
WESTERN NORTH CAROLINA

CITY           SKY/WX    TMP DP  RH WIND       PRES   REMARKS
ASHEVILLE      MOCLDY    70  51  51 S5        30.28S
JEFFERSON      CLOUDY    67  47  48 CALM      30.32S
MORGANTON      PTCLDY    70  58  66 CALM      30.29R
HICKORY        PTCLDY    75  53  46 S5        30.24R
RUTHERFORDTON  CLEAR     75  53  46 S3        30.25R
MOUNT AIRY     CLOUDY    77  56  47 CALM      30.25S
BOONE          MOCLDY    63  55  76 CALM      30.33S
$$

NCZ021-022-025-041-071-084-088-060100-
CENTRAL NORTH CAROLINA

CITY           SKY/WX    TMP DP  RH WIND       PRES   REMARKS
CHARLOTTE      PTCLDY    75  50  41 S7        30.23S
GREENSBORO     PTCLDY    76  54  46 S9        30.23R
WINSTON-SALEM  CLEAR     77  55  46 S6        30.24R
RALEIGH-DURHAM PTCLDY    75  54  47 S8        30.23F
FORT BRAGG     CLEAR     76  51  41 SE9       30.24R
FAYETTEVILLE   CLEAR     75  51  43 SE8       30.25R
BURLINGTON     CLEAR     76  57  51 S3        30.23R
LAURINBURG     CLEAR     76  52  43 S7        30.25R
$$

NCZ011-015-027-028-043-044-047-080-103-060100-
NORTHEASTERN NORTH CAROLINA

CITY           SKY/WX    TMP DP  RH WIND       PRES   REMARKS
ROCKY MT-WILSO CLEAR     74  50  42 S9        30.25R
GREENVILLE     CLEAR     73  52  46 S14       30.27S
WASHINGTON     MOCLDY    71  51  48 S7        30.28S
ELIZABETH CITY MOCLDY    71  53  52 S10       30.27R
MANTEO         MOCLDY    68  58  71 S7        30.29S
CAPE HATTERAS  MOCLDY    66  56  70 S9        30.31R
$$

NCZ078-087-090-091-093-098-101-060100-
SOUTHEASTERN NORTH CAROLINA

CITY           SKY/WX    TMP DP  RH WIND       PRES   REMARKS
LUMBERTON      PTCLDY    73  51  46 SE6       30.25R
GOLDSBORO      CLEAR     73  49  43 S7        30.25R
KINSTON        CLEAR     72  50  46 S10       30.28R
KENANSVILLE    PTCLDY    70  50  50 CALM      30.29S
NEW BERN       MOCLDY    68  51  54 S3        30.30R
CHERRY POINT   PTCLDY    68  51  54 S5        30.30S
BEAUFORT       PTCLDY    67  57  70 SE3       30.29S
JACKSONVILLE   PTCLDY    68  55  63 SE5       30.28S
WILMINGTON     MOCLDY    69  55  60 E3        30.28R
$$




USA.gov is the U.S. government's official web portal to all federal, state and local government web resources and services.